AirNav   Air Wisconsin Up To $57,000 Bonus
 
 1081 users online  

9GA1 Briar Patch Airport
Clyo, Georgia, USA

GOING TO CLYO?


FAA INFORMATION EFFECTIVE 09 SEPTEMBER 2021

Location

FAA Identifier: 9GA1
Lat/Long: 32-26-56.0000N 081-20-13.0000W
32-26.933333N 081-20.216667W
32.4488889,-81.3369444
(estimated)
Elevation: 100 ft. / 30 m (estimated)
Variation: 05W (1995)
From city: 4 miles SW of CLYO, GA
Time zone: UTC -4 (UTC -5 during Standard Time)
Zip code: 31303

Airport Operations

Airport use: Private use. Permission required prior to landing
Activation date: 02/1998
Control tower: no
ARTCC: JACKSONVILLE CENTER
FSS: MACON FLIGHT SERVICE STATION
Attendance: UNATNDD
Wind indicator: yes
Segmented circle: no

Airport Communications

WX AWOS-3 at JYL (18 nm NW): 118.875 (912-857-9000)

Nearby radio navigation aids

VOR radial/distance  VOR name  Freq  Var
SAVr345/19.5SAVANNAH VORTAC115.9506W
SVNr341/28.0HUNTER VOR/DME111.6002W
ALDr185/(33.9)ALLENDALE VOR116.7001W

 
NDB name  Hdg/Dist  Freq  Var  ID
SYLVANIA140/17.724507WJYL .--- -.-- .-..
MC INTOSH017/38.126304WMOQ -- --- --.-

Airport Services

Runway Information

Runway 16/34

Dimensions: 2600 x 100 ft. / 792 x 30 m
Surface: turf, in good condition
RUNWAY 16  RUNWAY 34
Traffic pattern: leftleft

Airport Ownership and Management from official FAA records

Ownership: Privately-owned
Owner: TIM O'NEILL
547 GREEN MORGAN SCHOOL ROAD
CLYO, GA 31303
Phone (912) 754-7547
Manager: TIM O'NEILL
547 GREEN MORGAN SCHOOL ROAD
CLYO, GA 31303
Phone (912) 754-7547

Airport Operational Statistics

Aircraft based on the field: 7
Single engine airplanes: 3
Ultralights: 4
    

Additional Remarks

FOR CD CTC SAVANNAH APCH AT 912-964-3205, WHEN APCH CLSD CTC JACKSONVILLE ARTCC AT 904-845-1592.

Instrument Procedures

There are no published instrument procedures at 9GA1.

Some nearby airports with instrument procedures:

KJYL - Plantation Airpark (18 nm NW)
KTBR - Statesboro-Bulloch County Airport (20 nm W)
KSAV - Savannah/Hilton Head International Airport (20 nm S)
KSVN - Hunter Army Airfield (28 nm S)
KCWV - Claxton-Evans County Airport (31 nm SW)
 
Loc | Ops | Rwys | IFR | FBO | Links
Com | Nav | Svcs | Stats | Notes
Area around 9GA1 (Briar Patch Airport)
 
Road maps at: MapQuest Bing Google
 
Aerial photo
WARNING: Photo may not be current or correct
Aerial photo of 9GA1 (Briar Patch Airport)
Photo taken 20-Aug-2005

Do you have a better or more recent aerial photo of Briar Patch Airport that you would like to share? If so, please send us your photo.

 
Sectional chart

 
Airport distance calculator
Flying to Briar Patch Airport? Find the distance to fly.

From to 9GA1

Sunrise and sunset
Times for 19-Sep-2021
 Local
(UTC-4)
 Zulu
(UTC)
Morning civil twilight06:4810:48
Sunrise07:1311:13
Sunset19:2623:26
Evening civil twilight19:5023:50

Current date and time
Zulu (UTC)  19-Sep-2021 21:20:07
Local (UTC-4)  19-Sep-2021 17:20:07
 
METAR
KJYL 
18nm NW 
192055Z AUTO 12004KT 10SM CLR 28/23 A3004 RMK AO2 LTG DSNT S T02790228
KTBR 
20nm W 
192055Z AUTO 10004KT 10SM CLR 27/21 A3003 RMK AO2 T02680210
KSAV 
21nm S 
192053Z 07008KT 10SM SCT027 BKN035 BKN085 OVC180 26/24 A3002 RMK AO2 RAB37E52 SLP165 P0000 60002 T02610239 56016
KSVN 
28nm S 
192056Z AUTO 08011KT 10SM SCT180 BKN210 28/24 A2999 RMK AO2 SLP158 60003 T02760236 57019 $
KCWV 
31nm SW 
192055Z AUTO 11005KT 10SM CLR 27/24 A3002 RMK AO2 T02700241
KNBC 
31nm E 
192056Z 09010G15KT CLR 29/22 A3003 RMK AO2 SLP168 T02890222 58019
KAQX 
33nm N 
192055Z AUTO 00000KT 10SM SCT034 BKN042 BKN055 29/22 A3003 RMK AO2
KHXD 
35nm E 
192050Z 08010G16KT 10SM OVC050 27/23 A3004
TAF
KSAV 
21nm S 
191733Z 1918/2018 08012KT P6SM VCSH BKN030 OVC150 FM192300 07007KT P6SM VCSH SCT030 OVC150 FM200700 08004KT 4SM SHRA SCT015 BKN025 FM201500 12009KT 3SM SHRA SCT012 OVC022
NOTAMs
Click for the latest NOTAMs
NOTAMs are issued by the DoD/FAA and will open in a separate window not controlled by AirNav.

 

 
 

Would you like to see your business listed on this page?

 If your business provides an interesting product or service to pilots, flight crews, aircraft, or users of the Briar Patch Airport, you should consider listing it here.  To start the listing process, click on the button below
 
Add a business
 

Other Pages about Briar Patch Airport

Update a link
 
Copyright © AirNav, LLC. All rights reserved. Privacy Policy  Contact